Orlando International, FL

1:38 AM EDT on April 23, 2017 (GMT -0400)
Orlando International

Weather History for KMCO - September, 2012

Change the Weather History Date:

Wednesday, September 5, 2012

  Actual Average Record
Temperature  
Mean Temperature 83 °F 82 °F  
Max Temperature 93 °F 91 °F 99 °F (1921)
Min Temperature 72 °F 74 °F 64 °F (1909)
Degree Days  
Heating Degree Days 0 0  
Month to date heating degree days 0 0  
Since 1 July heating degree days 0 0  
Cooling Degree Days 18 17  
Month to date cooling degree days 86 85  
Year to date cooling degree days 2691 2478  
Growing Degree Days 32 (Base 50)    
Moisture  
Dew Point 73 °F    
Average Humidity 76    
Maximum Humidity 100    
Minimum Humidity 52    
Precipitation  
Precipitation 0.15 in 0.21 in 7.72 in (1933)
Month to date precipitation 0.16 1.07  
Year to date precipitation 28.77 37.68  
Sea Level Pressure  
Sea Level Pressure 29.98 in    
Wind  
Wind Speed 6 mph (South)    
Max Wind Speed 23 mph    
Max Gust Speed 30 mph    
Visibility 9 miles    
Events Fog , Rain , Thunderstorm    
T = Trace of Precipitation, MM = Missing Value Source: NWS Daily Summary

Daily Weather History Graph

Daily Weather History Graph

Search for Another Location

Airport or City:

Trip Planner

Search our weather history database for the weather conditions in past years. The results will help you decide how hot, cold, wet, or windy it might be!

Date:

Astronomy

Sep. 05, 2012 Rise Set
Actual Time 7:05 AM EDT 7:41 PM EDT
Civil Twilight 6:41 AM EDT 8:05 PM EDT
Nautical Twilight 6:13 AM EDT 8:33 PM EDT
Astronomical Twilight 5:45 AM EDT 9:01 PM EDT
Moon 10:41 PM EDT (9/5) 11:38 AM EDT (9/5)
Length of Visible Light 13h 23m
Length of Day
12h 35m
Waning Gibbous, 76% of the Moon is Illuminated
Sep 5
Waning Gibbous
Sep 8
Last Quarter
Sep 15
New
Sep 22
First Quarter
Sep 29
Full

Hourly Weather History & Observations

Time (EDT) Temp. Heat Index Dew Point Humidity Pressure Visibility Wind Dir Wind Speed Gust Speed Precip Events Conditions
12:53 AM 73.9 °F - 73.9 °F 100% 30.00 in 10.0 mi SSE 3.5 mph - N/A   Scattered Clouds
1:53 AM 75.0 °F - 73.9 °F 96% 29.98 in 10.0 mi South 3.5 mph - N/A   Mostly Cloudy
2:53 AM 73.0 °F - 72.0 °F 96% 29.97 in 10.0 mi South 4.6 mph - N/A   Scattered Clouds
3:53 AM 73.0 °F - 72.0 °F 96% 29.95 in 10.0 mi South 4.6 mph - N/A   Partly Cloudy
4:53 AM 73.0 °F - 73.0 °F 100% 29.95 in 10.0 mi South 5.8 mph - N/A   Clear
5:53 AM 73.0 °F - 72.0 °F 96% 29.97 in 10.0 mi Calm Calm - N/A   Clear
6:53 AM 72.0 °F - 72.0 °F 100% 29.98 in 10.0 mi Calm Calm - N/A Fog Shallow Fog
7:53 AM 73.9 °F - 73.9 °F 100% 29.99 in 10.0 mi Calm Calm - N/A   Partly Cloudy
8:36 AM 75.2 °F - 75.2 °F 100% 29.99 in 10.0 mi SSE 5.8 mph - N/A   Partly Cloudy
8:53 AM 77.0 °F - 75.0 °F 94% 29.99 in 10.0 mi South 5.8 mph - N/A   Scattered Clouds
9:53 AM 81.0 °F 86.7 °F 75.0 °F 82% 30.00 in 10.0 mi SSW 9.2 mph - N/A   Partly Cloudy
10:53 AM 84.0 °F 91.2 °F 73.9 °F 72% 30.00 in 10.0 mi SSW 11.5 mph - N/A   Partly Cloudy
11:53 AM 84.9 °F 91.4 °F 73.0 °F 67% 30.01 in 10.0 mi SSW 10.4 mph - N/A   Scattered Clouds
12:53 PM 88.0 °F 94.7 °F 72.0 °F 59% 29.99 in 10.0 mi SW 6.9 mph - N/A   Scattered Clouds
1:53 PM 90.0 °F 96.9 °F 72.0 °F 55% 29.97 in 10.0 mi SW 8.1 mph - N/A   Mostly Cloudy
2:53 PM 91.0 °F 99.3 °F 73.0 °F 55% 29.95 in 10.0 mi SW 4.6 mph - N/A   Scattered Clouds
3:53 PM 90.0 °F 95.4 °F 70.0 °F 52% 29.92 in 10.0 mi Variable 6.9 mph - N/A   Scattered Clouds
4:53 PM 90.0 °F 97.9 °F 73.0 °F 57% 29.91 in 10.0 mi SSE 8.1 mph - N/A   Scattered Clouds
5:53 PM 88.0 °F 95.6 °F 73.0 °F 61% 29.93 in 10.0 mi SE 8.1 mph - N/A   Mostly Cloudy
6:53 PM 79.0 °F - 72.0 °F 79% 29.95 in 10.0 mi SSE 13.8 mph 24.2 mph N/A   Mostly Cloudy
7:53 PM 75.0 °F - 73.9 °F 96% 29.99 in 7.0 mi NNW 13.8 mph - 0.00 in Rain Light Rain
7:56 PM 73.4 °F - 73.4 °F 100% 30.00 in 2.0 mi NNW 10.4 mph - 0.00 in Rain , Thunderstorm Light Thunderstorms and Rain
8:13 PM 73.4 °F - 73.4 °F 100% 30.00 in 5.0 mi NNE 5.8 mph - 0.07 in Rain , Thunderstorm Heavy Thunderstorms and Rain
8:53 PM 75.0 °F - 73.0 °F 94% 30.00 in 10.0 mi ESE 4.6 mph - 0.12 in Rain , Thunderstorm Light Thunderstorms and Rain
9:19 PM 75.2 °F - 73.4 °F 94% 30.00 in 10.0 mi East 4.6 mph - 0.02 in Rain Light Rain
9:53 PM 75.9 °F - 75.0 °F 97% 29.99 in 10.0 mi Calm Calm - 0.03 in Rain Light Rain
10:53 PM 73.9 °F - 73.9 °F 100% 29.99 in 9.0 mi SSE 9.2 mph - 0.00 in   Mostly Cloudy
11:53 PM 73.9 °F - 73.0 °F 97% 30.00 in 10.0 mi South 8.1 mph - N/A   Scattered Clouds